When you browse on this site, cookies collect data to enhance your experience and personalize the content and advertising you see.
Visit our Privacy Policy to learn more. By continuing to use the site, you agree to this use of cookies and data.
  • In Hungary
  • List of Countries
  • For 7 days
  • Water Temperature
  • Weather Map
  • News
  • Weather Widgets
  • user-avatar
    Login

    Hourly Weather Shalahino

    Today, 20 January, Monday

    Time Temperature Precipitation Wind Pressure Humidity
    00:00 -1°C° 0 mm 5 mps 748 mmHg 90%
    01:00 -1°C° 0 mm 5 mps 748 mmHg 89%
    02:00 -1°C° 0 mm 5 mps 748 mmHg 89%
    03:00 -1°C° 0 mm 5 mps 748 mmHg 89%
    04:00 -1°C° 0 mm 5 mps 748 mmHg 89%
    05:00 -1°C° 0 mm 4 mps 748 mmHg 89%
    06:00 -1°C° 0 mm 4 mps 748 mmHg 89%
    07:00 -1°C° 0 mm 4 mps 748 mmHg 89%
    08:00 -1°C° 0 mm 5 mps 748 mmHg 88%
    09:00 -1°C° 0 mm 5 mps 748 mmHg 89%
    10:00 -1°C° 0 mm 5 mps 748 mmHg 90%
    11:00 -1°C° 0 mm 5 mps 748 mmHg 91%
    12:00 -1°C° 0 mm 5 mps 748 mmHg 91%
    13:00 -1°C° 0 mm 5 mps 748 mmHg 91%
    14:00 -1°C° 0 mm 5 mps 748 mmHg 91%
    15:00 -1°C° 0 mm 5 mps 748 mmHg 89%
    16:00 -1°C° 0 mm 5 mps 747 mmHg 87%
    17:00 -1°C° 0 mm 5 mps 747 mmHg 85%
    18:00 -1°C° 0 mm 5 mps 747 mmHg 85%
    19:00 -2°C° 0 mm 5 mps 746 mmHg 85%
    20:00 -2°C° 0 mm 5 mps 746 mmHg 85%
    21:00 -2°C° 0 mm 5 mps 745 mmHg 84%
    22:00 -2°C° 0 mm 5 mps 745 mmHg 83%
    23:00 -2°C° 0 mm 5 mps 744 mmHg 83%

    Tomorrow, 21 January, Tuesday

    Time Temperature Precipitation Wind Pressure Humidity
    00:00 -2°C° 0 mm 5 mps 743 mmHg 84%
    01:00 -2°C° 0 mm 5 mps 743 mmHg 85%
    02:00 -2°C° 0 mm 5 mps 742 mmHg 85%
    03:00 -1°C° 0.1 mm 5 mps 741 mmHg 87%
    04:00 -2°C° 0.1 mm 6 mps 740 mmHg 88%
    05:00 -2°C° 0.1 mm 6 mps 739 mmHg 90%
    06:00 -1°C° 0.1 mm 6 mps 738 mmHg 90%
    07:00 -1°C° 0.1 mm 6 mps 738 mmHg 90%
    08:00 +1°C° 0.1 mm 6 mps 737 mmHg 90%
    09:00 +1°C° 0 mm 6 mps 737 mmHg 90%
    10:00 +2°C° 0 mm 6 mps 736 mmHg 90%
    11:00 +2°C° 0 mm 6 mps 735 mmHg 90%
    12:00 +2°C° 0 mm 6 mps 735 mmHg 91%
    13:00 +2°C° 0 mm 6 mps 734 mmHg 92%
    14:00 +3°C° 0 mm 5 mps 734 mmHg 93%
    15:00 +3°C° 0.6 mm 6 mps 733 mmHg 92%
    16:00 +3°C° 0.6 mm 6 mps 731 mmHg 91%
    17:00 +4°C° 0.6 mm 7 mps 730 mmHg 90%
    18:00 +3°C° 1.1 mm 7 mps 731 mmHg 88%
    19:00 +2°C° 1.1 mm 7 mps 731 mmHg 87%
    20:00 +2°C° 1.1 mm 7 mps 731 mmHg 86%
    21:00 -1°C° 0 mm 6 mps 731 mmHg 82%
    22:00 -2°C° 0 mm 6 mps 731 mmHg 78%
    23:00 -3°C° 0 mm 6 mps 731 mmHg 74%

    Day after tomorrow, 22 January, Wednesday

    Time Temperature Precipitation Wind Pressure Humidity
    00:00 -3°C° 0 mm 6 mps 731 mmHg 74%
    01:00 -3°C° 0 mm 6 mps 731 mmHg 74%
    02:00 -3°C° 0 mm 6 mps 731 mmHg 74%
    03:00 -3°C° 0 mm 6 mps 731 mmHg 75%
    04:00 -3°C° 0 mm 6 mps 730 mmHg 77%
    05:00 -3°C° 0 mm 6 mps 730 mmHg 78%
    06:00 -4°C° 0.1 mm 6 mps 729 mmHg 78%
    07:00 -4°C° 0.1 mm 6 mps 728 mmHg 79%
    08:00 -4°C° 0.1 mm 6 mps 728 mmHg 79%
    09:00 -4°C° 0.2 mm 6 mps 727 mmHg 79%
    10:00 -3°C° 0.2 mm 6 mps 727 mmHg 80%
    11:00 -3°C° 0.2 mm 6 mps 727 mmHg 80%
    12:00 -3°C° 0.2 mm 6 mps 727 mmHg 75%
    13:00 -3°C° 0.2 mm 6 mps 727 mmHg 70%
    14:00 -3°C° 0.2 mm 6 mps 727 mmHg 65%
    15:00 -4°C° 0 mm 6 mps 727 mmHg 70%
    16:00 -4°C° 0 mm 6 mps 727 mmHg 76%
    17:00 -5°C° 0 mm 6 mps 727 mmHg 82%
    18:00 -5°C° 0.1 mm 6 mps 728 mmHg 80%
    19:00 -5°C° 0.1 mm 6 mps 728 mmHg 79%
    20:00 -5°C° 0.1 mm 6 mps 729 mmHg 78%
    21:00 -6°C° 0 mm 6 mps 730 mmHg 75%
    22:00 -6°C° 0 mm 6 mps 730 mmHg 73%
    23:00 -6°C° 0 mm 6 mps 731 mmHg 71%

    23 January, Thursday

    Time Temperature Precipitation Wind Pressure Humidity
    00:00 -8°C° 0 mm 6 mps 732 mmHg 71%
    01:00 -8°C° 0 mm 6 mps 732 mmHg 71%
    02:00 -9°C° 0 mm 6 mps 733 mmHg 71%
    03:00 -9°C° 0 mm 6 mps 734 mmHg 68%
    04:00 -9°C° 0 mm 6 mps 734 mmHg 65%
    05:00 -9°C° 0 mm 6 mps 734 mmHg 62%
    06:00 -9°C° 0 mm 6 mps 735 mmHg 60%
    07:00 -9°C° 0 mm 6 mps 735 mmHg 58%
    08:00 -8°C° 0 mm 6 mps 736 mmHg 55%
    09:00 -8°C° 0 mm 6 mps 736 mmHg 58%
    10:00 -8°C° 0 mm 6 mps 737 mmHg 60%
    11:00 -7°C° 0 mm 7 mps 737 mmHg 63%
    12:00 -6°C° 0 mm 6 mps 738 mmHg 60%
    13:00 -6°C° 0 mm 6 mps 738 mmHg 56%
    14:00 -6°C° 0 mm 6 mps 739 mmHg 53%
    15:00 -7°C° 0 mm 5 mps 739 mmHg 54%
    16:00 -7°C° 0 mm 4 mps 739 mmHg 55%
    17:00 -7°C° 0 mm 3 mps 740 mmHg 55%
    18:00 -7°C° 0 mm 3 mps 740 mmHg 56%
    19:00 -7°C° 0 mm 2 mps 740 mmHg 58%
    20:00 -7°C° 0 mm 2 mps 740 mmHg 59%
    21:00 -6°C° 0 mm 2 mps 740 mmHg 63%
    22:00 -6°C° 0 mm 2 mps 740 mmHg 67%
    23:00 -5°C° 0 mm 2 mps 740 mmHg 71%

    24 January, Friday

    Time Temperature Precipitation Wind Pressure Humidity
    00:00 -6°C° 0.2 mm 3 mps 739 mmHg 78%
    01:00 -5°C° 0.2 mm 4 mps 738 mmHg 85%
    02:00 -5°C° 0.2 mm 4 mps 737 mmHg 92%
    03:00 -6°C° 0.1 mm 5 mps 737 mmHg 92%
    04:00 -5°C° 0.1 mm 5 mps 736 mmHg 91%
    05:00 -5°C° 0.1 mm 5 mps 735 mmHg 91%
    06:00 -5°C° 0.2 mm 5 mps 735 mmHg 92%
    07:00 -3°C° 0.2 mm 4 mps 734 mmHg 93%
    08:00 -3°C° 0.2 mm 4 mps 734 mmHg 94%
    09:00 -2°C° 0.2 mm 4 mps 734 mmHg 95%
    10:00 -1°C° 0.2 mm 4 mps 733 mmHg 95%
    11:00 0°C° 0.2 mm 4 mps 733 mmHg 95%
    12:00 0°C° 0.2 mm 4 mps 733 mmHg 95%
    13:00 +1°C° 0.2 mm 4 mps 733 mmHg 95%
    14:00 +1°C° 0.2 mm 4 mps 732 mmHg 95%
    15:00 +1°C° 0.1 mm 5 mps 732 mmHg 95%
    16:00 +1°C° 0.1 mm 5 mps 732 mmHg 95%
    17:00 +1°C° 0.1 mm 5 mps 732 mmHg 95%
    18:00 +1°C° 0.1 mm 5 mps 731 mmHg 94%
    19:00 +1°C° 0.1 mm 5 mps 731 mmHg 94%
    20:00 +1°C° 0.1 mm 5 mps 731 mmHg 93%
    21:00 +1°C° 0.5 mm 5 mps 731 mmHg 94%
    22:00 +1°C° 0.5 mm 5 mps 731 mmHg 95%
    23:00 +1°C° 0.5 mm 5 mps 731 mmHg 96%

    25 January, Saturday

    Time Temperature Precipitation Wind Pressure Humidity
    00:00 +1°C° 0.5 mm 5 mps 731 mmHg 96%
    01:00 +1°C° 0.5 mm 5 mps 731 mmHg 96%
    02:00 +1°C° 0.5 mm 5 mps 731 mmHg 96%
    03:00 +1°C° 0.3 mm 4 mps 731 mmHg 96%
    04:00 +1°C° 0.3 mm 4 mps 731 mmHg 96%
    05:00 +1°C° 0.3 mm 4 mps 731 mmHg 97%
    06:00 +1°C° 0.1 mm 4 mps 731 mmHg 96%
    07:00 +2°C° 0.1 mm 3 mps 731 mmHg 95%
    08:00 +2°C° 0.1 mm 3 mps 732 mmHg 94%
    09:00 +2°C° 0.1 mm 3 mps 732 mmHg 94%
    10:00 +2°C° 0.1 mm 3 mps 733 mmHg 94%
    11:00 +2°C° 0.1 mm 3 mps 733 mmHg 94%
    12:00 +1°C° 0.1 mm 4 mps 733 mmHg 92%
    13:00 +1°C° 0.1 mm 4 mps 733 mmHg 89%
    14:00 +1°C° 0.1 mm 4 mps 733 mmHg 87%
    15:00 +1°C° 0 mm 3 mps 734 mmHg 89%
    16:00 0°C° 0 mm 3 mps 734 mmHg 90%
    17:00 -1°C° 0 mm 2 mps 734 mmHg 92%
    18:00 -1°C° 0 mm 2 mps 735 mmHg 93%
    19:00 -2°C° 0 mm 2 mps 735 mmHg 94%
    20:00 -2°C° 0 mm 2 mps 735 mmHg 95%
    21:00 -2°C° 0 mm 2 mps 736 mmHg 95%
    22:00 -2°C° 0 mm 2 mps 736 mmHg 95%
    23:00 -3°C° 0 mm 2 mps 736 mmHg 95%
    Show more